This is the latest recevied weather packets stored in our database for station/object K1LVA. If no packets are shown the sender has not sent any weather packets the latest 10 day(s).
| Time | Temp. | Humidity | Pressure | Rain* | Wind** | Luminosity | Snow |
|---|---|---|---|---|---|---|---|
| 1777725058 | 13.89° C | 99% | 1012.4 hPa | 6.1 mm | - | 4 W/m² | - |
| 1777724755 | 13.89° C | 99% | 1012.7 hPa | 4.83 mm | - | 3 W/m² | - |
| 1777724451 | 13.33° C | 99% | 1012.7 hPa | 4.83 mm | - | 3 W/m² | - |
| 1777724149 | 13.33° C | 99% | 1012.4 hPa | 4.83 mm | - | 8 W/m² | - |
| 1777723841 | 13.33° C | 99% | 1012.4 hPa | 1.78 mm | - | 13 W/m² | - |
| 1777723537 | 13.33° C | 99% | 1012.1 hPa | 1.27 mm | - | 10 W/m² | - |
| 1777723234 | 13.33° C | 99% | 1011.7 hPa | 1.27 mm | - | 8 W/m² | - |
| 1777722933 | 13.33° C | 99% | 1011.4 hPa | 1.78 mm | - | 25 W/m² | - |
| 1777722021 | 13.33° C | 99% | 1011.5 hPa | 1.27 mm | - | 14 W/m² | - |
| 1777721719 | 13.33° C | 99% | 1011.3 hPa | 1.78 mm | - | 7 W/m² | - |
| 1777721418 | 13.33° C | 99% | 1011.2 hPa | 3.05 mm | - | 9 W/m² | - |
| 1777721115 | 13.33° C | 99% | 1011.6 hPa | 1.27 mm | - | 5 W/m² | - |
| 1777720812 | 13.33° C | 99% | 1011.6 hPa | 1.78 mm | - | 3 W/m² | - |
| 1777720509 | 13.33° C | 99% | 1011.3 hPa | 1.78 mm | - | 2 W/m² | - |
| 1777720207 | 13.33° C | 99% | 1011.5 hPa | 1.27 mm | - | 2 W/m² | - |
| 1777719904 | 13.33° C | 99% | 1011.2 hPa | 1.27 mm | - | 3 W/m² | - |
| 1777719601 | 13.33° C | 99% | 1010.9 hPa | 0 mm | - | 1 W/m² | - |
| 1777719299 | 13.33° C | 99% | 1011.3 hPa | 1.78 mm | - | 0 W/m² | - |
| 1777718996 | 13.33° C | 99% | 1010.9 hPa | 1.78 mm | - | 0 W/m² | - |
| 1777718693 | 13.33° C | 99% | 1010.8 hPa | 0 mm | - | 0 W/m² | - |
| 1777718391 | 13.33° C | 99% | 1010.4 hPa | 0 mm | - | 0 W/m² | - |
| 1777718088 | 13.33° C | 99% | 1010.4 hPa | 1.78 mm | - | 0 W/m² | - |
| 1777717785 | 13.33° C | 99% | 1010.8 hPa | 1.78 mm | - | 0 W/m² | - |
| 1777717482 | 13.33° C | 99% | 1010.6 hPa | 0 mm | - | 0 W/m² | - |
| 1777717179 | 13.33° C | 99% | 1010.7 hPa | 0 mm | - | 0 W/m² | - |
* Rain latest hour (hover to see other rain measurements)
** Current wind speed in m/s (hover to see current wind gust speed)